Location: Newark
(46.3567°N, 6.1428°E)
Time: 06:41:06
(UTC+00:00)

First-Move - Pass Details

Date: 25 September 2019
Orbit: 577 x 669 km, 97.6° (Epoch: 15 October)

Event Time Altitude Azimuth Distance (km) Brightness Sun altitude
Rises 18:13:36 0° 204° (SSW) 2,815 ? -8.7°
Reaches altitude 10° 18:16:19 10° 223° (SW) 1,907 ? -9.2°
Maximum altitude 18:19:13 18° 268° (W) 1,441 ? -9.6°
Drops below altitude 10° 18:22:06 10° 313° (NW) 1,902 ? -10.1°
Sets 18:24:50 0° 332° (NNW) 2,804 ? -10.6°
